EST,Max TemperatureF,Mean TemperatureF,Min TemperatureF,Max Dew PointF,MeanDew PointF,Min DewpointF,Max Humidity, Mean Humidity, Min Humidity, Max Sea Level PressureIn, Mean Sea Level PressureIn, Min Sea Level PressureIn, Max VisibilityMiles, Mean VisibilityMiles, Min VisibilityMiles, Max Wind SpeedMPH, Mean Wind SpeedMPH, Max Gust SpeedMPH,PrecipitationIn, CloudCover, Events, WindDirDegrees
2011-11-1,58,50,39,45,40,36,89,71,44,30.35,30.27,30.21,10,10,10,18,10,21,0.00,2,,2
2011-11-2,58,46,35,44,38,32,91,73,50,30.43,30.35,30.28,10,10,4,7,1,,0.00,0,,136
2011-11-3,63,52,42,47,44,39,94,74,52,30.27,30.10,29.95,10,8,1,15,7,,0.02,0,,180
2011-11-4,56,49,42,47,39,26,100,77,39,30.22,29.99,29.89,10,9,5,20,6,24,0.00,4,,5
2011-11-5,52,44,36,35,30,26,77,59,39,30.49,30.39,30.23,10,10,10,17,11,21,0.00,0,,33
2011-11-6,55,44,34,43,40,32,93,81,60,30.56,30.48,30.42,10,10,10,8,4,,0.00,4,,14
2011-11-7,62,50,39,53,44,37,100,97,57,30.40,30.37,30.29,10,3,0,9,1,,0.00,1,Fog,219
2011-11-8,68,53,38,50,43,38,100,85,46,30.30,30.26,30.21,10,3,0,7,0,,0.00,0,Fog,161
2011-11-9,60,48,37,57,46,37,100,97,79,30.21,30.15,29.97,10,1,0,10,1,,0.00,1,Fog,122
2011-11-10,59,52,44,59,52,35,100,95,66,29.97,29.85,29.73,10,4,0,22,4,33,0.01,8,Fog-Rain,312
2011-11-11,48,43,38,33,28,26,68,56,42,30.12,29.90,29.73,10,10,10,24,14,33,0.00,1,,268
2011-11-12,60,46,32,40,33,27,82,60,39,30.17,30.14,30.09,10,10,10,21,10,24,0.00,0,,189
2011-11-13,61,54,46,41,36,33,68,50,34,30.16,30.08,30.00,10,10,10,22,13,30,0.00,3,,187
2011-11-14,71,63,55,54,51,43,80,65,53,30.00,29.91,29.81,10,10,10,22,17,31,0.00,0,,193
2011-11-15,67,62,56,58,54,50,89,71,55,29.99,29.90,29.81,10,10,10,18,10,24,0.00,5,,229
2011-11-16,66,60,55,65,57,52,100,96,82,29.95,29.79,29.68,10,7,2,21,5,24,1.07,8,Rain,289
2011-11-17,55,46,37,54,40,25,100,80,54,30.17,29.91,29.80,10,9,4,24,11,30,0.15,6,Rain,310
2011-11-18,44,38,32,25,23,20,73,55,41,30.48,30.40,30.19,10,10,10,14,9,18,0.00,0,Rain,252
2011-11-19,56,43,31,43,33,25,85,68,36,30.47,30.40,30.31,10,10,10,16,9,,0.00,0,,170
2011-11-20,64,55,47,51,49,46,93,75,62,30.28,30.23,30.18,10,10,10,17,11,23,0.00,4,,197
2011-11-21,59,54,50,58,54,46,100,94,80,30.27,30.23,30.20,10,6,0,12,6,,0.00,8,Fog,22
2011-11-22,62,55,50,60,53,48,100,97,92,30.29,30.17,29.85,10,7,2,15,8,25,0.35,8,Rain,83
2011-11-23,66,54,41,63,55,35,100,88,67,30.04,29.70,29.57,10,8,2,28,14,34,0.84,7,Rain,251
2011-11-24,55,46,36,38,35,32,86,67,48,30.25,30.21,30.07,10,10,10,14,10,,0.00,0,,275
2011-11-25,66,54,43,40,36,30,73,56,25,30.27,30.22,30.17,10,10,10,12,8,,0.00,0,,219
2011-11-26,66,53,40,50,41,36,89,70,37,30.26,30.21,30.18,10,9,2,9,5,,0.00,0,,201
2011-11-27,67,56,44,52,48,40,93,78,55,30.19,30.15,30.11,10,9,2,17,8,30,0.00,0,,168
2011-11-28,71,62,52,61,56,50,95,83,58,30.15,30.09,30.02,10,10,10,16,8,,0.00,4,,127
2011-11-29,64,56,47,61,53,45,100,94,87,30.00,29.79,29.70,10,8,2,22,12,30,0.55,7,Rain,160
2011-11-30,50,45,40,44,36,30,94,71,55,30.05,29.82,29.68,10,10,10,14,11,23,0.00,4,,235